GW3439 Weather Reports


time (UTC)temp
C
wind
direction
speed
KPH
gust
KPH
rain 1hr
cm
rain 24hr
cm
rain mn
cm
humidity
%
barometer
mb
20260504151004 21 213 3.2 11.3 0.00 0.00 0.00 56 1019.1
20260504150504 21 298 4.8 11.3 0.00 0.00 0.00 58 1019.1
20260504141004 19 223 1.6 11.3 0.00 0.00 0.00 69 1019.3
20260504140504 18 242 3.2 11.3 0.00 0.00 0.00 69 1019.3
20260504130508 16 281 1.6 6.4 0.00 0.00 0.00 76 1019.3
20260504110504 10 226 0.0 0.0 0.00 0.00 0.00 88 1018.6
20260504100501 10 226 0.0 0.0 0.00 0.00 0.00 87 1018.4
20260504082004 12 226 0.0 3.2 0.00 0.00 0.00 85 1018.7
20260504081523 12 226 0.0 4.8 0.00 0.00 0.00 85 1018.8
20260504081004 12 226 0.0 4.8 0.00 0.00 0.00 85 1018.7
20260504080507 13 226 1.6 3.2 0.00 0.00 0.00 85 1018.7
20260504050504 15 203 0.0 6.4 0.00 0.00 0.00 79 1020.1
20260504050013 15 203 1.6 4.8 0.00 0.00 0.00 79 1020.1
20260504045504 15 203 1.6 6.4 0.00 0.00 0.00 77 1020.1
20260504045006 15 203 1.6 6.4 0.00 0.00 0.00 77 1020.1
20260504044523 15 203 1.6 4.8 0.00 0.00 0.00 77 1020.1
20260504044009 15 203 0.0 6.4 0.00 0.00 0.00 78 1020.1
20260504043507 15 203 3.2 6.4 0.00 0.00 0.00 78 1020.1
20260504043022 13 203 3.2 6.4 0.00 0.00 0.00 80 1020.1
20260504042507 13 203 0.0 4.8 0.00 0.00 0.00 82 1020.2
20260504042007 12 203 3.2 4.8 0.00 0.00 0.00 84 1020.2
20260504041519 12 203 1.6 4.8 0.00 0.00 0.00 83 1020.2
20260504041008 13 203 0.0 3.2 0.00 0.00 0.00 83 1020.2
20260504040507 12 203 0.0 0.0 0.00 0.00 0.00 83 1020.1
20260504040024 13 203 0.0 0.0 0.00 0.00 0.00 83 1020.1
20260504035508 13 203 0.0 0.0 0.00 0.00 0.00 83 1020.1
20260504035005 12 203 0.0 0.0 0.00 0.00 0.00 83 1020.1
20260504034513 13 203 0.0 0.0 0.00 0.00 0.00 83 1020.3
20260504034007 12 203 0.0 0.0 0.00 0.00 0.00 83 1020.2
20260504033508 13 203 0.0 1.6 0.00 0.00 0.00 83 1020.1
20260504033022 13 203 0.0 3.2 0.00 0.00 0.00 83 1020.1
20260504032507 13 203 0.0 4.8 0.00 0.00 0.00 82 1020.2
20260504032012 13 203 1.6 4.8 0.00 0.00 0.00 80 1020.2
20260504031522 14 203 1.6 4.8 0.00 0.00 0.00 80 1020.2
20260504031007 14 203 0.0 1.6 0.00 0.00 0.00 79 1020.2
20260504030504 14 203 0.0 1.6 0.00 0.00 0.00 79 1020.2
20260504030008 14 203 0.0 3.2 0.00 0.00 0.00 79 1020.2
20260504025504 14 203 1.6 3.2 0.00 0.00 0.00 79 1020.1
20260504025004 15 203 0.0 0.0 0.00 0.00 0.00 78 1020.1
20260504024511 15 203 0.0 0.0 0.00 0.00 0.00 77 1020.0
20260504024004 15 203 0.0 0.0 0.00 0.00 0.00 76 1020.0
20260504023503 14 203 0.0 0.0 0.00 0.00 0.00 78 1020.0
20260504023016 14 203 0.0 0.0 0.00 0.00 0.00 79 1019.6
20260504022505 14 203 0.0 0.0 0.00 0.00 0.00 79 1019.6
20260504022007 14 203 0.0 3.2 0.00 0.00 0.00 79 1019.6
20260504021526 14 203 0.0 3.2 0.00 0.00 0.00 79 1019.6
20260504021008 14 203 0.0 3.2 0.00 0.00 0.00 79 1019.6
20260504020508 14 203 0.0 3.2 0.00 0.00 0.00 79 1019.7
20260504020022 15 203 1.6 3.2 0.00 0.00 0.00 78 1019.6
20260504015508 15 203 0.0 1.6 0.00 0.00 0.00 79 1019.6
20260504015004 15 203 0.0 3.2 0.00 0.00 0.00 78 1019.5
20260504014508 15 203 0.0 4.8 0.00 0.00 0.00 77 1019.5
20260504014003 15 203 1.6 4.8 0.00 0.00 0.00 77 1019.4
20260504013508 15 203 1.6 3.2 0.00 0.00 0.00 76 1019.4
20260504013012 15 203 0.0 3.2 0.00 0.00 0.00 75 1019.4
20260504012508 16 203 0.0 3.2 0.00 0.00 0.00 74 1019.4
20260504012011 16 203 0.0 6.4 0.00 0.00 0.00 72 1019.3
20260504011519 17 203 0.0 6.4 0.00 0.00 0.00 69 1019.2
20260504011008 16 203 1.6 6.4 0.00 0.00 0.00 74 1019.2
20260504010510 16 191 1.6 6.4 0.00 0.00 0.00 73 1019.1
20260504010023 16 329 1.6 3.2 0.00 0.00 0.00 73 1019.0
20260504005506 16 329 0.0 0.0 0.00 0.00 0.00 70 1018.9
20260504005007 17 329 0.0 0.0 0.00 0.00 0.00 69 1018.9
20260504004524 17 329 0.0 0.0 0.00 0.00 0.00 70 1018.8
20260504004011 17 329 0.0 1.6 0.00 0.00 0.00 68 1018.8
20260504003511 17 329 0.0 1.6 0.00 0.00 0.00 68 1018.8
20260504003008 18 329 0.0 1.6 0.00 0.00 0.00 68 1018.8
20260504002505 18 329 0.0 1.6 0.00 0.00 0.00 67 1018.8
20260504002007 19 329 0.0 1.6 0.00 0.00 0.00 64 1018.8
20260504001515 19 329 0.0 1.6 0.00 0.00 0.00 62 1018.8
20260504001008 20 32 0.0 1.6 0.00 0.00 0.00 62 1018.8
20260504000507 20 32 0.0 3.2 0.00 0.00 0.00 61 1018.7
20260504000020 21 32 0.0 4.8 0.00 0.00 0.00 54 1018.8
20260503235507 22 73 1.6 4.8 0.00 0.00 0.00 50 1018.8
20260503235007 22 315 0.0 4.8 0.00 0.00 0.00 41 1018.8
20260503234538 22 319 1.6 4.8 0.00 0.00 0.00 41 1018.8
20260503234011 22 307 3.2 4.8 0.00 0.00 0.00 43 1018.9
20260503233509 22 333 1.6 6.4 0.00 0.00 0.00 41 1019.0
20260503233025 23 336 3.2 6.4 0.00 0.00 0.00 43 1019.0
20260503232510 23 288 1.6 6.4 0.00 0.00 0.00 40 1019.0
20260503232010 23 13 1.6 6.4 0.00 0.00 0.00 40 1019.0
20260503231514 23 263 1.6 9.7 0.00 0.00 0.00 41 1018.9
20260503231008 23 314 3.2 9.7 0.00 0.00 0.00 39 1018.9
20260503230510 23 352 4.8 9.7 0.00 0.00 0.00 40 1018.9
20260503230017 23 12 3.2 8.0 0.00 0.00 0.00 41 1018.9
20260503225506 23 352 3.2 8.0 0.00 0.00 0.00 40 1019.0
20260503225006 23 352 3.2 12.9 0.00 0.00 0.00 40 1019.1
20260503224523 23 345 6.4 16.1 0.00 0.00 0.00 38 1019.1
20260503224007 23 44 8.0 16.1 0.00 0.00 0.00 40 1019.0
20260503223514 23 352 6.4 12.9 0.00 0.00 0.00 42 1019.1
20260503223028 23 322 4.8 14.5 0.00 0.00 0.00 41 1019.2
20260503222509 23 302 8.0 14.5 0.00 0.00 0.00 38 1019.1
20260503222011 23 342 4.8 14.5 0.00 0.00 0.00 42 1019.1
20260503221528 23 23 6.4 14.5 0.00 0.00 0.00 38 1019.2
20260503221015 23 267 3.2 14.5 0.00 0.00 0.00 39 1019.3
20260503220510 23 323 6.4 14.5 0.00 0.00 0.00 39 1019.3
20260503220036 23 296 8.0 14.5 0.00 0.00 0.00 39 1019.4
20260503215507 23 288 4.8 11.3 0.00 0.00 0.00 39 1019.4
20260503215006 23 284 4.8 16.1 0.00 0.00 0.00 37 1019.6
20260503214522 23 301 8.0 16.1 0.00 0.00 0.00 38 1019.6
20260503214007 23 326 4.8 14.5 0.00 0.00 0.00 40 1019.6
20260503213514 23 242 4.8 14.5 0.00 0.00 0.00 38 1019.7
20260503213026 23 338 4.8 12.9 0.00 0.00 0.00 38 1019.7
20260503212508 23 311 4.8 12.9 0.00 0.00 0.00 37 1019.7
20260503212010 23 313 3.2 12.9 0.00 0.00 0.00 37 1019.8
20260503211527 23 272 0.0 16.1 0.00 0.00 0.00 35 1019.8
20260503211015 23 248 6.4 17.7 0.00 0.00 0.00 36 1019.9
20260503210510 23 285 9.7 17.7 0.00 0.00 0.00 38 1020.0
20260503210028 23 258 4.8 14.5 0.00 0.00 0.00 37 1020.0
20260503205502 23 279 3.2 11.3 0.00 0.00 0.00 38 1020.0
20260503205001 23 352 0.0 12.9 0.00 0.00 0.00 37 1020.1
20260503204503 23 259 4.8 14.5 0.00 0.00 0.00 40 1020.2
20260503204003 23 92 4.8 14.5 0.00 0.00 0.00 35 1020.2
20260503203504 23 259 6.4 12.9 0.00 0.00 0.00 40 1020.3
20260503203010 23 162 3.2 17.7 0.00 0.00 0.00 38 1020.4
20260503202504 23 252 4.8 17.7 0.00 0.00 0.00 37 1020.4
20260503202004 23 301 11.3 17.7 0.00 0.00 0.00 37 1020.5
20260503201504 23 274 3.2 16.1 0.00 0.00 0.00 42 1020.5
20260503201006 23 217 8.0 16.1 0.00 0.00 0.00 39 1020.5
20260503200503 23 262 8.0 14.5 0.00 0.00 0.00 38 1020.6
20260503200011 22 322 3.2 12.9 0.00 0.00 0.00 36 1020.7
20260503195505 23 307 6.4 19.3 0.00 0.00 0.00 41 1020.9
20260503195007 23 266 9.7 20.9 0.00 0.00 0.00 35 1021.0
20260503194501 23 360 9.7 20.9 0.00 0.00 0.00 40 1021.1
20260503194001 23 5 4.8 12.9 0.00 0.00 0.00 45 1021.2
20260503193503 22 206 1.6 17.7 0.00 0.00 0.00 39 1021.3
20260503193003 22 73 1.6 17.7 0.00 0.00 0.00 36 1021.5
20260503192503 23 317 9.7 17.7 0.00 0.00 0.00 40 1021.5
20260503192005 22 344 1.6 14.5 0.00 0.00 0.00 40 1021.7
20260503191510 23 61 8.0 17.7 0.00 0.00 0.00 40 1021.7
20260503191007 23 275 9.7 17.7 0.00 0.00 0.00 39 1021.8
20260503190504 23 360 8.0 17.7 0.00 0.00 0.00 34 1021.9
20260503190007 22 18 3.2 16.1 0.00 0.00 0.00 36 1022.0
20260503185503 22 309 6.4 16.1 0.00 0.00 0.00 37 1022.0
20260503185004 22 259 6.4 17.7 0.00 0.00 0.00 41 1022.1
20260503184514 22 318 11.3 17.7 0.00 0.00 0.00 40 1022.1
20260503184007 22 300 8.0 16.1 0.00 0.00 0.00 40 1022.2
20260503183507 22 307 4.8 14.5 0.00 0.00 0.00 39 1022.2
20260503183021 23 342 4.8 17.7 0.00 0.00 0.00 44 1022.3
20260503182503 22 35 8.0 17.7 0.00 0.00 0.00 41 1022.3
20260503182003 22 166 4.8 11.3 0.00 0.00 0.00 40 1022.4
20260503181505 22 88 3.2 8.0 0.00 0.00 0.00 39 1022.3
20260503181004 22 9 3.2 9.7 0.00 0.00 0.00 39 1022.5
20260503180504 22 193 1.6 9.7 0.00 0.00 0.00 39 1022.7
20260503180012 22 346 3.2 12.9 0.00 0.00 0.00 43 1022.7
20260503175506 22 88 6.4 12.9 0.00 0.00 0.00 42 1022.7
20260503175004 21 98 1.6 12.9 0.00 0.00 0.00 40 1022.7
20260503174510 21 32 4.8 19.3 0.00 0.00 0.00 40 1022.8
20260503174008 22 5 12.9 19.3 0.00 0.00 0.00 39 1022.9
20260503173510 22 247 6.4 20.9 0.00 0.00 0.00 40 1023.0
20260503173012 22 331 14.5 20.9 0.00 0.00 0.00 36 1023.1
20260503172506 22 58 0.0 16.1 0.00 0.00 0.00 43 1023.1
20260503172007 21 95 9.7 19.3 0.00 0.00 0.00 39 1023.2
20260503171520 22 36 12.9 19.3 0.00 0.00 0.00 39 1023.4
20260503171003 22 29 11.3 17.7 0.00 0.00 0.00 40 1023.5
20260503170507 21 18 4.8 16.1 0.00 0.00 0.00 41 1023.5